When you browse on this site, cookies collect data to enhance your experience and personalize the content and advertising you see.
Visit our Privacy Policy to learn more. By continuing to use the site, you agree to this use of cookies and data.
  • In Romania
  • List of Countries
  • For 7 days
  • Water Temperature
  • Satellite Maps
  • Weather Map
  • Weather Widgets
  • user-avatar
    Login

    Hourly Weather Kuchary

    Today, 27 May, Monday

    Time Temperature Precipitation Wind Pressure Humidity
    00:00 +14°C° 0 mm 2 mps 739 mmHg 89%
    01:00 +14°C° 0 mm 2 mps 739 mmHg 90%
    02:00 +14°C° 0 mm 2 mps 739 mmHg 90%
    03:00 +14°C° 0 mm 2 mps 739 mmHg 90%
    04:00 +13°C° 0 mm 2 mps 739 mmHg 91%
    05:00 +15°C° 0 mm 2 mps 739 mmHg 87%
    06:00 +17°C° 0 mm 2 mps 739 mmHg 84%
    07:00 +19°C° 0 mm 2 mps 739 mmHg 80%
    08:00 +20°C° 0 mm 2 mps 739 mmHg 73%
    09:00 +23°C° 0 mm 2 mps 739 mmHg 66%
    10:00 +24°C° 0 mm 2 mps 739 mmHg 58%
    11:00 +25°C° 0 mm 2 mps 738 mmHg 57%
    12:00 +25°C° 0 mm 2 mps 738 mmHg 56%
    13:00 +26°C° 0 mm 2 mps 738 mmHg 54%
    14:00 +26°C° 0.1 mm 2 mps 738 mmHg 57%
    15:00 +26°C° 0.1 mm 2 mps 737 mmHg 60%
    16:00 +25°C° 0.1 mm 2 mps 737 mmHg 62%
    17:00 +24°C° 0.1 mm 2 mps 737 mmHg 67%
    18:00 +23°C° 0.1 mm 1 mps 736 mmHg 72%
    19:00 +21°C° 0.1 mm 1 mps 736 mmHg 76%
    20:00 +19°C° 0 mm 2 mps 736 mmHg 79%
    21:00 +18°C° 0 mm 2 mps 736 mmHg 82%
    22:00 +17°C° 0 mm 2 mps 736 mmHg 85%
    23:00 +17°C° 0 mm 2 mps 735 mmHg 87%

    Tomorrow, 28 May, Tuesday

    Time Temperature Precipitation Wind Pressure Humidity
    00:00 +17°C° 0 mm 2 mps 735 mmHg 89%
    01:00 +17°C° 0 mm 2 mps 735 mmHg 91%
    02:00 +16°C° 0 mm 2 mps 734 mmHg 92%
    03:00 +16°C° 0 mm 2 mps 734 mmHg 92%
    04:00 +15°C° 0 mm 2 mps 734 mmHg 93%
    05:00 +17°C° 0 mm 2 mps 734 mmHg 89%
    06:00 +18°C° 0 mm 2 mps 734 mmHg 85%
    07:00 +19°C° 0 mm 3 mps 734 mmHg 81%
    08:00 +21°C° 0.1 mm 3 mps 734 mmHg 76%
    09:00 +22°C° 0.1 mm 4 mps 734 mmHg 71%
    10:00 +25°C° 0.1 mm 4 mps 734 mmHg 66%
    11:00 +23°C° 0.7 mm 4 mps 733 mmHg 69%
    12:00 +23°C° 0.7 mm 4 mps 733 mmHg 72%
    13:00 +22°C° 0.7 mm 4 mps 732 mmHg 75%
    14:00 +22°C° 0.3 mm 3 mps 732 mmHg 74%
    15:00 +23°C° 0.3 mm 2 mps 732 mmHg 73%
    16:00 +23°C° 0.3 mm 1 mps 732 mmHg 72%
    17:00 +22°C° 2.1 mm 1 mps 732 mmHg 75%
    18:00 +21°C° 2.1 mm 1 mps 732 mmHg 79%
    19:00 +20°C° 2.1 mm 1 mps 732 mmHg 82%
    20:00 +18°C° 0.1 mm 2 mps 732 mmHg 84%
    21:00 +17°C° 0.1 mm 2 mps 733 mmHg 86%
    22:00 +16°C° 0.1 mm 2 mps 733 mmHg 88%
    23:00 +15°C° 0 mm 2 mps 733 mmHg 91%

    Day after tomorrow, 29 May, Wednesday

    Time Temperature Precipitation Wind Pressure Humidity
    00:00 +13°C° 0 mm 3 mps 734 mmHg 93%
    01:00 +13°C° 0 mm 3 mps 734 mmHg 96%
    02:00 +13°C° 0.1 mm 3 mps 735 mmHg 96%
    03:00 +13°C° 0.1 mm 4 mps 735 mmHg 96%
    04:00 +13°C° 0.1 mm 4 mps 736 mmHg 96%
    05:00 +12°C° 0.4 mm 4 mps 736 mmHg 95%
    06:00 +12°C° 0.4 mm 5 mps 737 mmHg 94%
    07:00 +10°C° 0.4 mm 5 mps 738 mmHg 93%
    08:00 +11°C° 0.5 mm 4 mps 738 mmHg 93%
    09:00 +10°C° 0.5 mm 4 mps 739 mmHg 93%
    10:00 +10°C° 0.5 mm 4 mps 739 mmHg 93%
    11:00 +11°C° 0.2 mm 3 mps 740 mmHg 91%
    12:00 +11°C° 0.2 mm 3 mps 740 mmHg 90%
    13:00 +12°C° 0.2 mm 3 mps 740 mmHg 89%
    14:00 +13°C° 0 mm 2 mps 740 mmHg 87%
    15:00 +14°C° 0 mm 2 mps 741 mmHg 85%
    16:00 +15°C° 0 mm 1 mps 741 mmHg 84%
    17:00 +15°C° 0.1 mm 1 mps 741 mmHg 85%
    18:00 +14°C° 0.1 mm 1 mps 741 mmHg 86%
    19:00 +14°C° 0.1 mm 1 mps 741 mmHg 88%
    20:00 +13°C° 0.1 mm 1 mps 741 mmHg 88%
    21:00 +13°C° 0.1 mm 1 mps 742 mmHg 89%
    22:00 +12°C° 0.1 mm 1 mps 742 mmHg 90%
    23:00 +12°C° 0.1 mm 2 mps 742 mmHg 90%

    30 May, Thursday

    Time Temperature Precipitation Wind Pressure Humidity
    00:00 +12°C° 0.1 mm 2 mps 742 mmHg 91%
    01:00 +10°C° 0.1 mm 2 mps 742 mmHg 92%
    02:00 +10°C° 0.4 mm 2 mps 742 mmHg 93%
    03:00 +10°C° 0.4 mm 2 mps 742 mmHg 94%
    04:00 +10°C° 0.4 mm 2 mps 743 mmHg 95%
    05:00 +10°C° 0.3 mm 2 mps 743 mmHg 94%
    06:00 +10°C° 0.3 mm 2 mps 743 mmHg 93%
    07:00 +10°C° 0.3 mm 3 mps 743 mmHg 92%
    08:00 +11°C° 0 mm 3 mps 743 mmHg 89%
    09:00 +11°C° 0 mm 3 mps 744 mmHg 87%
    10:00 +13°C° 0 mm 2 mps 744 mmHg 84%
    11:00 +14°C° 0 mm 2 mps 744 mmHg 80%
    12:00 +15°C° 0 mm 2 mps 743 mmHg 75%
    13:00 +15°C° 0 mm 2 mps 743 mmHg 71%
    14:00 +16°C° 0 mm 2 mps 743 mmHg 69%
    15:00 +18°C° 0 mm 1 mps 743 mmHg 67%
    16:00 +19°C° 0 mm 1 mps 743 mmHg 65%
    17:00 +18°C° 0 mm 1 mps 743 mmHg 68%
    18:00 +16°C° 0 mm 1 mps 744 mmHg 72%
    19:00 +15°C° 0 mm 1 mps 744 mmHg 76%
    20:00 +14°C° 0 mm 1 mps 744 mmHg 75%
    21:00 +13°C° 0 mm 1 mps 744 mmHg 75%
    22:00 +12°C° 0 mm 1 mps 744 mmHg 75%
    23:00 +12°C° 0 mm 1 mps 744 mmHg 75%

    31 May, Friday

    Time Temperature Precipitation Wind Pressure Humidity
    00:00 +11°C° 0 mm 1 mps 744 mmHg 75%
    01:00 +11°C° 0 mm 1 mps 743 mmHg 75%
    02:00 +10°C° 0 mm 1 mps 743 mmHg 76%
    03:00 +10°C° 0 mm 1 mps 743 mmHg 77%
    04:00 +10°C° 0 mm 1 mps 743 mmHg 78%
    05:00 +12°C° 0 mm 1 mps 743 mmHg 75%
    06:00 +13°C° 0 mm 1 mps 743 mmHg 72%
    07:00 +15°C° 0 mm 1 mps 743 mmHg 69%
    08:00 +16°C° 0 mm 1 mps 742 mmHg 66%
    09:00 +19°C° 0 mm 1 mps 742 mmHg 64%
    10:00 +20°C° 0 mm 1 mps 742 mmHg 62%
    11:00 +21°C° 0 mm 1 mps 742 mmHg 61%
    12:00 +21°C° 0 mm 1 mps 741 mmHg 60%
    13:00 +22°C° 0 mm 1 mps 741 mmHg 59%
    14:00 +22°C° 0.1 mm 1 mps 741 mmHg 64%
    15:00 +21°C° 0.1 mm 1 mps 741 mmHg 69%
    16:00 +20°C° 0.1 mm 2 mps 740 mmHg 74%
    17:00 +18°C° 0.5 mm 2 mps 740 mmHg 80%
    18:00 +17°C° 0.5 mm 2 mps 740 mmHg 86%
    19:00 +16°C° 0.5 mm 2 mps 740 mmHg 92%
    20:00 +15°C° 0.1 mm 2 mps 740 mmHg 92%
    21:00 +15°C° 0.1 mm 2 mps 740 mmHg 91%
    22:00 +15°C° 0.1 mm 1 mps 741 mmHg 90%
    23:00 +15°C° 0 mm 2 mps 741 mmHg 91%

    1 June, Saturday

    Time Temperature Precipitation Wind Pressure Humidity
    00:00 +15°C° 0 mm 2 mps 741 mmHg 93%
    01:00 +13°C° 0 mm 3 mps 741 mmHg 94%
    02:00 +14°C° 0.4 mm 4 mps 741 mmHg 94%
    03:00 +14°C° 0.4 mm 5 mps 741 mmHg 94%
    04:00 +14°C° 0.4 mm 5 mps 741 mmHg 95%
    05:00 +13°C° 0.7 mm 6 mps 742 mmHg 94%
    06:00 +11°C° 0.7 mm 6 mps 742 mmHg 94%
    07:00 +11°C° 0.7 mm 7 mps 742 mmHg 93%
    08:00 +11°C° 0.7 mm 6 mps 743 mmHg 93%
    09:00 +11°C° 0.7 mm 6 mps 743 mmHg 92%
    10:00 +11°C° 0.7 mm 6 mps 744 mmHg 92%
    11:00 +11°C° 0.5 mm 6 mps 744 mmHg 91%
    12:00 +11°C° 0.5 mm 6 mps 744 mmHg 91%
    13:00 +11°C° 0.5 mm 6 mps 744 mmHg 90%
    14:00 +11°C° 0.6 mm 6 mps 744 mmHg 90%
    15:00 +12°C° 0.6 mm 5 mps 744 mmHg 90%
    16:00 +12°C° 0.6 mm 5 mps 744 mmHg 91%
    17:00 +12°C° 0.5 mm 4 mps 745 mmHg 91%
    18:00 +12°C° 0.5 mm 4 mps 745 mmHg 91%
    19:00 +12°C° 0.5 mm 4 mps 745 mmHg 92%
    20:00 +11°C° 0.6 mm 4 mps 745 mmHg 92%
    21:00 +11°C° 0.6 mm 4 mps 745 mmHg 92%
    22:00 +11°C° 0.6 mm 4 mps 745 mmHg 92%
    23:00 +10°C° 0.5 mm 4 mps 745 mmHg 92%
    Show more